EW5546 Weather Reports


Display with metric or nautical units.
time (UTC)temp
F
wind
direction
speed
MPH
gust
MPH
rain 1hr
in
rain 24hr
in
rain mn
in
humidity
%
barometer
mb
20260901192046 64 0.0 0.0 0.04 0.17 0.17 71 1016.1
20260901191046 64 0.0 0.0 0.04 0.17 0.17 70 1016.1
20260901190038 64 0.0 0.0 0.04 0.17 0.17 69 1016.1
20260901185025 64 203 0.0 1.0 0.04 0.17 0.17 68 1016.1
20260901184017 65 214 1.0 3.0 0.04 0.17 0.17 67 1016.1
20260901183018 65 203 1.0 2.0 0.00 0.12 0.12 64 1016.1
20260901182023 66 223 1.0 2.0 0.00 0.12 0.12 61 1016.1
20260901181022 66 231 0.0 2.0 0.00 0.12 0.12 58 1016.1
20260901180022 67 97 3.0 5.0 0.00 0.12 0.12 55 1015.0
20260901175022 67 229 1.0 1.0 0.00 0.12 0.12 54 1015.0
20260901174026 67 221 1.0 2.0 0.00 0.12 0.12 54 1015.0
20260901172024 68 219 2.0 2.0 0.00 0.12 0.12 53 1015.0
20260901171034 68 218 1.0 2.0 0.00 0.12 0.12 53 1015.0
20260901170025 68 214 2.0 2.0 0.00 0.12 0.12 52 1015.0
20260901165023 68 230 1.0 1.0 0.00 0.12 0.12 52 1014.2
20260901164022 68 228 1.0 3.0 0.00 0.12 0.12 52 1014.0
20260901163015 69 203 1.0 2.0 0.00 0.12 0.12 51 1015.0
20260901162105 69 205 2.0 3.0 0.00 0.12 0.12 51 1015.0
20260901161016 69 203 1.0 1.0 0.00 0.12 0.12 51 1015.0
20260901160023 69 231 1.0 3.0 0.00 0.12 0.12 50 1014.0
20260901155016 69 227 1.0 2.0 0.00 0.12 0.12 50 1014.0
20260901154022 69 239 1.0 2.0 0.00 0.12 0.12 50 1014.0
20260901153024 69 212 1.0 2.0 0.00 0.12 0.12 50 1014.0
20260901152103 69 209 1.0 2.0 0.00 0.12 0.12 49 1014.0
20260901151022 70 293 2.0 3.0 0.00 0.12 0.12 49 1014.0
20260901150016 71 221 1.0 2.0 0.00 0.12 0.12 49 1014.0
20260901145023 71 228 1.0 2.0 0.00 0.12 0.12 50 1014.0
20260901144023 72 203 1.0 2.0 0.00 0.12 0.12 50 1014.0
20260901143042 71 163 1.0 2.0 0.00 0.12 0.12 52 1014.0
20260901142017 70 163 1.0 2.0 0.00 0.12 0.12 54 1014.0
20260901141023 70 242 1.0 2.0 0.00 0.12 0.12 54 1014.0
20260901140026 0 83 2.0 6.0 0.00 0.12 0.12 1014.0
20260901135023 71 62 1.0 3.0 0.00 0.12 0.12 54 1014.0
20260901134026 72 215 1.0 4.0 0.00 0.12 0.12 55 1014.0
20260901133026 70 68 1.0 3.0 0.00 0.12 0.12 57 1014.0
20260901132023 67 347 1.0 2.0 0.00 0.12 0.12 59 1014.0
20260901131043 68 120 1.0 2.0 0.00 0.12 0.12 59 1014.0
20260901130023 68 241 2.0 2.0 0.00 0.12 0.12 59 1014.0
20260901125024 68 82 2.0 4.0 0.00 0.12 0.12 58 1014.0
20260901124038 0 217 1.0 2.0 0.00 0.12 0.12 1014.0
20260901123023 68 270 2.0 6.0 0.00 0.12 0.12 61 1014.0
20260901122043 67 324 1.0 3.0 0.08 0.12 0.12 63 1014.0
20260901121020 66 239 3.0 6.0 0.08 0.12 0.12 65 1014.0
20260901120024 66 68 1.0 2.0 0.08 0.12 0.12 65 1014.0
20260901115023 67 0.0 0.0 0.08 0.12 0.12 64 1014.0
20260901114023 67 240 1.0 2.0 0.08 0.12 0.12 62 1014.0
20260901113024 68 274 3.0 7.0 0.08 0.12 0.12 60 1014.0
20260901112042 69 246 1.0 2.0 0.04 0.04 0.04 59 1014.0
20260901111023 68 203 1.0 2.0 0.04 0.04 0.04 60 1014.0
20260901110023 68 203 1.0 1.0 0.00 0.00 0.00 58 1014.0
20260901105028 70 259 2.0 4.0 0.00 0.00 0.00 52 1014.0
20260901104015 71 215 2.0 3.0 0.00 0.00 0.00 49 1014.0
20260901103018 71 77 2.0 2.0 0.00 0.00 0.00 50 1013.0
20260901102025 0 221 2.0 3.0 0.00 0.00 0.00 1013.0
20260901101020 70 188 2.0 4.0 0.00 0.00 0.00 50 1013.0
20260901100022 71 215 2.0 5.0 0.00 0.00 0.00 49 1014.0
20260901095022 71 226 2.0 3.0 0.00 0.00 0.00 50 1013.5
20260901094022 71 223 3.0 3.0 0.00 0.00 0.00 49 1013.0
20260901093023 71 233 2.0 4.0 0.00 0.00 0.00 49 1013.0
20260901092018 70 238 3.0 3.0 0.00 0.00 0.00 51 1013.0
20260901091016 70 204 3.0 5.0 0.00 0.00 0.00 53 1013.0
20260901090016 70 220 2.0 5.0 0.00 0.00 0.00 53 1013.0
20260901085022 70 221 1.0 2.0 0.00 0.00 0.00 56 1013.0
20260901084015 70 208 2.0 2.0 0.00 0.00 0.00 57 1013.0
20260901083045 69 205 2.0 3.0 0.00 0.00 0.00 56 1013.0
20260901082022 69 216 2.0 2.0 0.00 0.00 0.00 58 1013.0
20260901081023 69 250 2.0 2.0 0.00 0.00 0.00 57 1013.0
20260901080023 69 238 2.0 4.0 0.00 0.00 0.00 58 1013.0
20260901075022 0 215 2.0 3.0 0.00 0.00 0.00 1013.0
20260901074025 0 223 0.0 2.0 0.00 0.00 0.00 1013.0
20260901073023 68 203 1.0 2.0 0.00 0.00 0.00 61 1013.0
20260901072023 68 244 1.0 2.0 0.00 0.00 0.00 61 1013.0
20260901071023 68 239 1.0 3.0 0.00 0.00 0.00 63 1013.0
20260901070032 67 215 2.0 3.0 0.00 0.00 0.00 63 1013.0
20260901065105 67 217 1.0 2.0 0.00 0.00 0.00 65 1012.5
20260901064023 67 217 1.0 2.0 0.00 0.00 0.00 65 1012.0
20260901063023 67 171 1.0 2.0 0.00 0.00 0.00 66 1012.0
20260901062022 67 206 1.0 3.0 0.00 0.00 0.00 67 1012.0
20260901061023 66 0.0 0.0 0.00 0.00 0.00 68 1012.0
20260901060026 66 222 1.0 1.0 0.00 0.00 0.00 69 1012.0
20260901055016 66 240 1.0 3.0 0.00 0.00 0.00 70 1012.0
20260901054023 65 242 1.0 2.0 0.00 0.00 0.00 71 1012.0
20260901053024 65 222 1.0 1.0 0.00 0.00 0.00 72 1012.0
20260901052044 65 203 1.0 3.0 0.00 0.00 0.00 72 1012.0
20260901051103 64 203 0.0 1.0 0.00 0.00 0.00 73 1012.0
20260901050044 64 0.0 0.0 0.00 0.00 0.00 74 1012.0
20260901045026 64 0.0 0.0 0.00 0.00 0.00 74 1012.0
20260901044025 64 177 2.0 3.0 0.00 0.00 0.00 74 1012.0
20260901043020 64 217 1.0 1.0 0.00 0.00 0.00 74 1012.0
20260901042045 65 248 0.0 2.0 0.00 0.00 0.00 74 1011.5
20260901041023 65 225 0.0 1.0 0.00 0.00 0.00 75 1011.0
20260901040025 65 0.0 0.0 0.00 0.00 0.00 75 1011.0
20260901035023 65 225 0.0 1.0 0.00 0.00 0.00 75 1011.0
20260901034017 65 203 0.0 2.0 0.00 0.00 0.00 76 1011.0
20260901033018 65 225 0.0 3.0 0.00 0.00 0.00 76 1011.0
20260901032024 65 0.0 0.0 0.00 0.00 0.00 77 1011.0
20260901031023 65 0.0 0.0 0.00 0.00 0.00 77 1011.0
20260901030024 65 235 0.0 1.0 0.00 0.00 0.00 77 1011.0
20260901025018 65 0.0 0.0 0.00 0.00 0.00 78 1011.0
20260901024023 65 293 0.0 1.0 0.00 0.00 0.00 78 1011.0
20260901023024 65 248 0.0 1.0 0.00 0.00 0.00 78 1011.0
20260901022016 65 0.0 0.0 0.00 0.00 0.00 79 1011.0
20260901021015 65 0.0 0.0 0.00 0.00 0.00 79 1011.0
20260901020023 65 0.0 0.0 0.00 0.00 0.00 79 1011.0
20260901015015 65 0.0 0.0 0.00 0.00 0.00 80 1011.0
20260901014022 65 225 0.0 1.0 0.00 0.00 0.00 80 1011.0
20260901013022 65 225 0.0 1.0 0.00 0.00 0.00 80 1011.0
20260901012022 65 0.0 0.0 0.00 0.00 0.00 80 1011.0
20260901011018 66 0.0 0.0 0.00 0.00 0.00 80 1011.0
20260901010054 66 248 0.0 1.0 0.00 0.00 0.00 80 1011.0
20260901005026 66 0.0 0.0 0.00 0.00 0.00 80 1011.0
20260901004022 66 0.0 0.0 0.00 0.00 0.00 80 1011.0
20260901003022 66 0.0 0.0 0.00 0.00 0.00 80 1012.0
20260901002022 66 0.0 0.0 0.00 0.00 0.00 80 1011.5
20260901001018 66 0.0 0.0 0.00 0.00 0.00 80 1011.8
20260901000044 66 0.0 0.0 0.00 0.00 0.00 80 1012.0
20260831235021 66 0.0 0.0 0.00 0.00 0.00 80 1012.0
20260831234042 66 0.0 0.0 0.00 0.00 0.00 81 1012.0
20260831233023 66 0.0 0.0 0.00 0.00 0.00 80 1012.0
20260831232023 66 0.0 0.0 0.00 0.00 0.00 80 1012.0
20260831231021 66 0.0 0.0 0.00 0.00 0.00 80 1012.0
20260831230020 66 0.0 0.0 0.00 0.00 0.00 80 1012.0
20260831225023 66 0.0 0.0 0.00 0.00 0.00 80 1012.0
20260831224020 66 0.0 0.0 0.00 0.00 0.00 80 1012.0
20260831223026 66 0.0 0.0 0.00 0.00 0.00 80 1012.0
20260831222023 66 0.0 0.0 0.00 0.00 0.00 80 1012.0
20260831221017 67 0.0 0.0 0.00 0.00 0.00 80 1012.0
20260831220043 67 0.0 0.0 0.00 0.00 0.00 80 1013.0
20260831215020 67 203 1.0 2.0 0.00 0.00 0.00 80 1012.4
20260831214015 67 0.0 0.0 0.00 0.00 0.00 80 1012.0
20260831213025 67 0.0 0.0 0.00 0.00 0.00 80 1012.0
20260831212023 67 0.0 0.0 0.00 0.00 0.00 80 1012.5
20260831211042 67 0.0 0.0 0.00 0.00 0.00 80 1013.0
20260831210022 67 0.0 0.0 0.00 0.00 0.00 79 1013.0
20260831205017 67 0.0 0.0 0.00 0.00 0.00 79 1013.0
20260831204023 67 0.0 0.0 0.00 0.00 0.00 79 1013.0
20260831203022 67 0.0 0.0 0.00 0.00 0.00 79 1013.0
20260831202023 67 0.0 0.0 0.00 0.00 0.00 79 1013.0
20260831201022 67 0.0 0.0 0.00 0.00 0.00 78 1013.0
20260831200028 67 0.0 0.0 0.00 0.00 0.00 78 1012.0
20260831195022 67 0.0 0.0 0.00 0.00 0.00 78 1012.0
20260831194039 67 0.0 0.0 0.00 0.00 0.00 77 1012.0
20260831193024 67 0.0 0.0 0.00 0.00 0.00 77 1012.0